#timestamp,LO_Frequency,Hit,Temp,Hum 
1478052015.7,286047091.6,N,0.0,0.0
1478052035.5,286047091.5,N,0.0,0.0
1478052055.4,286047090.4,N,0.0,0.0
1478052075.2,286047090.8,N,0.0,0.0
1478052095.0,286047090.5,N,0.0,0.0
1478052095.9,286047090.5,N,0.0,0.0
1478052115.8,286047093.4,N,0.0,0.0
1478052135.6,286047091.2,N,0.0,0.0
1478052155.4,286047091.1,N,0.0,0.0
1478052175.3,286047091.8,N,0.0,0.0
1478052195.1,286047089.4,N,0.0,0.0
1478052215.8,286047090.2,N,0.0,0.0
1478052235.7,286047088.5,N,0.0,0.0
1478052255.5,286047093.5,N,0.0,0.0
1478052275.4,286047093.5,N,0.0,0.0
1478052295.2,286047091.7,N,0.0,0.0
1478052315.0,286047089.7,N,0.0,0.0
1478052315.9,286047089.7,N,0.0,0.0
1478052335.8,286047091.8,N,0.0,0.0
1478052355.6,286047088.9,N,0.0,0.0
1478052375.4,286047089.3,N,0.0,0.0
1478052395.3,286047088.3,N,0.0,0.0
1478052415.1,286047086.8,N,0.0,0.0
1478052435.8,286047084.6,N,0.0,0.0
1478052455.7,286047090.4,N,0.0,0.0
1478052475.5,286047089.4,N,0.0,0.0
1478052495.3,286047093.2,N,0.0,0.0
1478052515.2,286047095.6,N,0.0,0.0
1478052535.0,286047093.5,N,0.0,0.0
1478052535.9,286047093.5,N,0.0,0.0
1478052555.8,286047092.5,N,0.0,0.0
1478052575.6,286047091.5,N,0.0,0.0
1478052595.4,286047091.6,N,0.0,0.0
1478052615.3,286047092.5,N,0.0,0.0
1478052635.1,286047092.7,N,0.0,0.0
1478052636.0,286047092.7,N,0.0,0.0
1478052655.8,286047093.0,N,0.0,0.0
1478052675.7,286047093.1,N,0.0,0.0
1478052695.5,286047092.9,N,0.0,0.0
1478052715.3,286047094.8,N,0.0,0.0
1478052735.2,286047096.7,N,0.0,0.0
1478052755.0,286047091.0,N,0.0,0.0
1478052755.9,286047091.0,N,0.0,0.0
1478052775.7,286047092.7,N,0.0,0.0
1478052795.6,286047094.8,N,0.0,0.0
1478052815.4,286047097.1,N,0.0,0.0
1478052835.3,286047094.1,N,0.0,0.0
1478052855.1,286047094.7,N,0.0,0.0
1478052856.0,286047094.7,N,0.0,0.0
1478052875.8,286047094.8,N,0.0,0.0
1478052895.7,286047095.6,N,0.0,0.0
1478052915.5,286047092.7,N,0.0,0.0
1478052935.3,286047091.0,N,0.0,0.0
1478052955.2,286047092.3,N,0.0,0.0
1478052975.9,286047092.8,N,0.0,0.0
1478052995.7,286047093.4,N,0.0,0.0
1478053015.6,286047094.7,N,0.0,0.0
1478053035.4,286047095.0,N,0.0,0.0
1478053055.2,286047097.2,N,0.0,0.0
1478053075.1,286047095.4,N,0.0,0.0
1478053076.0,286047095.4,N,0.0,0.0
1478053095.8,286047097.0,N,0.0,0.0
1478053115.6,286047096.6,N,0.0,0.0
1478053135.5,286047096.4,N,0.0,0.0
1478053155.3,286047095.8,N,0.0,0.0
1478053175.2,286047096.2,N,0.0,0.0
1478053195.9,286047096.0,N,0.0,0.0
1478053215.7,286047094.5,N,0.0,0.0
1478053235.6,286047094.6,N,0.0,0.0
1478053255.4,286047093.0,N,0.0,0.0
1478053275.2,286047093.7,N,0.0,0.0
1478053295.1,286047094.4,N,0.0,0.0
1478053296.0,286047094.4,N,0.0,0.0
1478053315.8,286047094.6,N,0.0,0.0
1478053335.6,286047094.6,N,0.0,0.0
1478053355.5,286047098.7,N,0.0,0.0
1478053375.3,286047094.7,N,0.0,0.0
1478053395.1,286047095.5,N,0.0,0.0
1478053415.9,286047094.2,N,0.0,0.0
1478053435.7,286047096.4,N,0.0,0.0
1478053455.5,286047092.6,N,0.0,0.0
1478053475.4,286047094.8,N,0.0,0.0
1478053495.2,286047094.3,N,0.0,0.0
1478053515.1,286047093.7,N,0.0,0.0
1478053516.0,286047093.7,N,0.0,0.0
1478053535.8,286047094.5,N,0.0,0.0
1478053555.6,286047096.4,N,0.0,0.0
1478053575.5,286047098.6,N,0.0,0.0
1478053595.3,286047098.0,N,0.0,0.0
1478053615.1,286047098.5,N,0.0,0.0
1478053635.9,286047098.7,N,0.0,0.0
1478053655.7,286047097.2,N,0.0,0.0
1478053675.5,286047095.5,N,0.0,0.0
1478053695.4,286047096.7,N,0.0,0.0
1478053715.2,286047097.2,N,0.0,0.0
1478053735.0,286047094.2,N,0.0,0.0
1478053735.9,286047094.2,N,0.0,0.0
1478053755.8,286047096.0,N,0.0,0.0
1478053775.6,286047095.8,N,0.0,0.0
1478053795.5,286047097.6,N,0.0,0.0
1478053815.3,286047097.8,N,0.0,0.0
1478053835.1,286047096.4,N,0.0,0.0
1478053855.9,286047098.2,N,0.0,0.0
1478053875.7,286047098.8,N,0.0,0.0
1478053895.5,286047098.6,N,0.0,0.0
1478053915.4,286047100.2,N,0.0,0.0
1478053935.2,286047098.7,N,0.0,0.0
1478053955.0,286047098.7,N,0.0,0.0
1478053955.9,286047098.7,N,0.0,0.0
1478053975.8,286047100.2,N,0.0,0.0
1478053995.6,286047099.9,N,0.0,0.0
1478054015.4,286047097.4,N,0.0,0.0
1478054035.3,286047097.6,N,0.0,0.0
1478054055.1,286047099.8,N,0.0,0.0
1478054075.9,286047099.7,N,0.0,0.0
1478054095.7,286047099.5,N,0.0,0.0
1478054115.5,286047100.2,N,0.0,0.0
1478054135.4,286047101.3,N,0.0,0.0
1478054155.2,286047099.5,N,0.0,0.0
1478054175.0,286047099.4,N,0.0,0.0
1478054175.9,286047099.4,N,0.0,0.0
1478054195.8,286047099.2,N,0.0,0.0
1478054215.6,286047099.1,N,0.0,0.0
1478054235.4,286047102.0,N,0.0,0.0
1478054255.3,286047100.0,N,0.0,0.0
1478054275.1,286047099.8,N,0.0,0.0
1478054295.8,286047098.1,N,0.0,0.0
1478054315.7,286047098.6,N,0.0,0.0
1478054335.5,286047098.8,N,0.0,0.0
1478054355.3,286047098.3,N,0.0,0.0
1478054375.2,286047099.5,N,0.0,0.0
1478054395.0,286047098.5,N,0.0,0.0
1478054395.9,286047098.5,N,0.0,0.0
1478054415.8,286047102.8,N,0.0,0.0
1478054435.6,286047101.5,N,0.0,0.0
1478054455.4,286047099.5,N,0.0,0.0
1478054475.3,286047101.8,N,0.0,0.0
1478054495.1,286047102.3,N,0.0,0.0
1478054496.0,286047102.3,N,0.0,0.0
1478054515.8,286047099.1,N,0.0,0.0
1478054535.7,286047097.8,N,0.0,0.0
1478054555.5,286047098.3,N,0.0,0.0
1478054575.3,286047097.3,N,0.0,0.0
1478054595.2,286047099.1,N,0.0,0.0
1478054615.0,286047102.0,N,0.0,0.0
1478054615.9,286047102.0,N,0.0,0.0
1478054635.8,286047101.0,N,0.0,0.0
1478054655.6,286047102.8,N,0.0,0.0
1478054675.4,286047101.4,N,0.0,0.0
1478054695.3,286047101.2,N,0.0,0.0
1478054715.1,286047100.5,N,0.0,0.0
1478054716.0,286047100.5,N,0.0,0.0
1478054735.8,286047102.2,N,0.0,0.0
1478054755.7,286047101.8,N,0.0,0.0
1478054775.5,286047101.3,N,0.0,0.0
1478054795.3,286047103.2,N,0.0,0.0
1478054815.2,286047101.2,N,0.0,0.0
1478054835.0,286047103.3,N,0.0,0.0
1478054835.9,286047103.3,N,0.0,0.0
1478054855.7,286047101.6,N,0.0,0.0
1478054875.6,286047100.2,N,0.0,0.0
1478054895.4,286047103.4,N,0.0,0.0
1478054915.3,286047102.7,N,0.0,0.0
1478054935.1,286047103.6,N,0.0,0.0
1478054936.0,286047103.6,N,0.0,0.0
1478054955.8,286047102.4,N,0.0,0.0
1478054975.7,286047105.0,N,0.0,0.0
1478054995.5,286047102.7,N,0.0,0.0
1478055015.3,286047103.5,N,0.0,0.0
1478055035.2,286047100.8,N,0.0,0.0
1478055055.9,286047101.4,N,0.0,0.0
1478055075.7,286047102.5,N,0.0,0.0
1478055095.6,286047102.7,N,0.0,0.0
1478055115.4,286047104.3,N,0.0,0.0
1478055135.2,286047101.3,N,0.0,0.0
1478055155.1,286047103.4,N,0.0,0.0
1478055156.0,286047103.4,N,0.0,0.0
1478055175.8,286047104.4,N,0.0,0.0
1478055195.7,286047102.2,N,0.0,0.0
1478055215.5,286047104.0,N,0.0,0.0
1478055235.3,286047105.4,N,0.0,0.0
1478055255.2,286047089.7,N,0.0,0.0
1478055275.9,286047101.8,N,0.0,0.0
1478055295.7,286047100.5,N,0.0,0.0
1478055315.6,286047099.3,N,0.0,0.0
1478055335.4,286047101.0,N,0.0,0.0
1478055355.2,286047101.1,N,0.0,0.0
1478055375.1,286047105.1,N,0.0,0.0
1478055376.0,286047105.1,N,0.0,0.0
1478055395.8,286047102.2,N,0.0,0.0
1478055415.6,286047102.3,N,0.0,0.0
1478055435.5,286047101.4,N,0.0,0.0
1478055455.3,286047105.2,N,0.0,0.0
1478055475.1,286047096.4,N,0.0,0.0
1478055495.9,286047097.0,N,0.0,0.0
1478055515.7,286047104.4,N,0.0,0.0
1478055535.6,286047104.9,N,0.0,0.0
1478055555.4,286047139.5,N,0.0,0.0
1478055575.2,286047104.1,N,0.0,0.0
1478055595.1,286047104.3,N,0.0,0.0
1478055596.0,286047104.3,N,0.0,0.0
